Cherry Point MCAS /Cunningham Field/
KNKT : now visible

Airfield :











YOU CAN JOIN US ON...

 
LOGIN :

Register | Disclaimer

   EN    FR    IT 

 









Legend :    VFR   Marginal VFR   IFR   Intensive IFR   Very Intensive IFR
Visi :
Ceiling :
>= 8 km
>= 3000ft
5 to 8 km
1000 to 3000 ft
1500m to 5 km
500 to 1000 ft
800 to 1500m
200 to 500 ft
< 800m
< 200 ft
Symbols :   Thunderstorms  Fog  Heavy snow  Heavy precipitations  Wind > 20 kt






- Airport Elevation : 29 ft


KNKT - Cherry Point MCAS /Cunningham Field/

EXPIRED METARs :
  • 281156Z 21006KT 10SM CLR 19/17 A3004 RMK AO2 SLP170 T01890172 10189 20156 53006
  • 281056Z 21006KT 7SM SKC 17/16 A3004 RMK SLP169 T01720161

TAF TAF KNKT
Valid from the 28 at 09:00 until the 29 at 09:00 UTC


2809/2909 20004KT 9999 SKC QNH2999INS
BECMG 2812/2814 23008KT 9999 FEW050 QNH2990INS
FM290400 VRB06KT 9999 SKC QNH2990INS T28/2819Z T17/2909Z
KZDC FIR / North America



MET'MAP, your aeronautical weather chart ! - Copyright ORBIFLY December 2007 - Disclaimer

ORBIFLY MET'MAP TEAM :

Programming & Development : Alexandra Zaïnal
Concept & original design : Baudouin d'Aumeries
Assistance for programming : Marc-Olivier Méhu
Technical & hardware support : Manuel Goepfert

Contact : metmap@orbifly.com




SOURCES & CREDITS :

   NOAA       Earth
Advisory